Location: Unspecified
(0.0000°N, 0.0000°E)
Time: 14:38:19
(UTC+00:00)

Altair - Pass Details

Date: 16 March 2026
Orbit: 1502 x 1682 km, 47.2° (Epoch: 18 April)

Event Time Altitude Azimuth Distance (km) Brightness Sun altitude
Rises 19:32:10 0° 243° (WSW) 4,859 11.2 -20.9°
Reaches altitude 10° 19:35:52 10° 253° (WSW) 3,845 10.6 -21.8°
Maximum altitude 19:44:00 30° 311° (NW) 2,536 9.0 -23.9°
Drops below altitude 10° 19:51:56 10° 8° (N) 3,715 9.4 -25.8°
Sets 19:55:29 0° 19° (NNE) 4,673 9.8 -26.7°
